When you browse on this site, cookies collect data to enhance your experience and personalize the content and advertising you see.
Visit our Privacy Policy to learn more. By continuing to use the site, you agree to this use of cookies and data.
  • în România
  • Lista ţărilor
  • Pe 7 zile
  • Temperatura apei
  • Meteo pe hartă
  • Widget-uri
  • user-avatar
    Intrare

    Meteo pe oră la Asciano

    Astăzi, 23 Ianuarie, Joi

    Timp Temperatura Precipitaţii Vânt Presiune Umiditate
    00:00 +6°C° 0 mm 0 m/s 751 mmHg 88%
    01:00 +5°C° 0 mm 0 m/s 751 mmHg 88%
    02:00 +5°C° 0 mm 0 m/s 751 mmHg 89%
    03:00 +6°C° 0 mm 1 m/s 750 mmHg 89%
    04:00 +6°C° 0 mm 1 m/s 750 mmHg 90%
    05:00 +6°C° 0 mm 1 m/s 750 mmHg 90%
    06:00 +4°C° 0 mm 0 m/s 750 mmHg 90%
    07:00 +4°C° 0 mm 0 m/s 750 mmHg 90%
    08:00 +6°C° 0 mm 0 m/s 751 mmHg 86%
    09:00 +7°C° 0 mm 0 m/s 751 mmHg 82%
    10:00 +9°C° 0 mm 1 m/s 751 mmHg 78%
    11:00 +11°C° 0 mm 1 m/s 751 mmHg 73%
    12:00 +12°C° 0 mm 1 m/s 751 mmHg 69%
    13:00 +13°C° 0 mm 1 m/s 751 mmHg 64%
    14:00 +13°C° 0 mm 1 m/s 750 mmHg 67%
    15:00 +13°C° 0 mm 1 m/s 750 mmHg 69%
    16:00 +12°C° 0 mm 0 m/s 749 mmHg 72%
    17:00 +10°C° 0 mm 0 m/s 749 mmHg 76%
    18:00 +10°C° 0 mm 1 m/s 749 mmHg 81%
    19:00 +8°C° 0 mm 1 m/s 749 mmHg 86%
    20:00 +8°C° 0 mm 1 m/s 749 mmHg 87%
    21:00 +7°C° 0 mm 1 m/s 749 mmHg 88%
    22:00 +7°C° 0 mm 1 m/s 749 mmHg 89%
    23:00 +6°C° 0 mm 1 m/s 749 mmHg 89%

    Mâine, 24 Ianuarie, Vineri

    Timp Temperatura Precipitaţii Vânt Presiune Umiditate
    00:00 +6°C° 0 mm 1 m/s 749 mmHg 89%
    01:00 +6°C° 0 mm 1 m/s 749 mmHg 90%
    02:00 +6°C° 0 mm 1 m/s 749 mmHg 90%
    03:00 +5°C° 0 mm 1 m/s 748 mmHg 89%
    04:00 +5°C° 0 mm 1 m/s 748 mmHg 89%
    05:00 +5°C° 0 mm 1 m/s 748 mmHg 89%
    06:00 +5°C° 0 mm 1 m/s 748 mmHg 88%
    07:00 +5°C° 0 mm 1 m/s 748 mmHg 88%
    08:00 +6°C° 0 mm 1 m/s 748 mmHg 84%
    09:00 +8°C° 0 mm 1 m/s 749 mmHg 80%
    10:00 +9°C° 0 mm 1 m/s 749 mmHg 76%
    11:00 +10°C° 0 mm 1 m/s 749 mmHg 73%
    12:00 +12°C° 0 mm 1 m/s 748 mmHg 70%
    13:00 +13°C° 0 mm 2 m/s 748 mmHg 68%
    14:00 +13°C° 0 mm 2 m/s 748 mmHg 71%
    15:00 +12°C° 0 mm 2 m/s 748 mmHg 75%
    16:00 +12°C° 0 mm 2 m/s 747 mmHg 78%
    17:00 +10°C° 0.1 mm 2 m/s 747 mmHg 81%
    18:00 +10°C° 0.1 mm 2 m/s 747 mmHg 83%
    19:00 +9°C° 0.1 mm 2 m/s 746 mmHg 85%
    20:00 +9°C° 0.3 mm 2 m/s 746 mmHg 87%
    21:00 +9°C° 0.3 mm 2 m/s 746 mmHg 88%
    22:00 +8°C° 0.3 mm 2 m/s 746 mmHg 90%
    23:00 +8°C° 0.3 mm 2 m/s 746 mmHg 91%

    Poimâine, 25 Ianuarie, Sâmbătă

    Timp Temperatura Precipitaţii Vânt Presiune Umiditate
    00:00 +8°C° 0.3 mm 2 m/s 746 mmHg 91%
    01:00 +8°C° 0.3 mm 2 m/s 746 mmHg 92%
    02:00 +8°C° 0 mm 2 m/s 746 mmHg 93%
    03:00 +8°C° 0 mm 2 m/s 745 mmHg 94%
    04:00 +7°C° 0 mm 2 m/s 745 mmHg 94%
    05:00 +8°C° 0 mm 1 m/s 745 mmHg 95%
    06:00 +8°C° 0 mm 1 m/s 745 mmHg 95%
    07:00 +8°C° 0 mm 1 m/s 745 mmHg 95%
    08:00 +9°C° 0.1 mm 1 m/s 745 mmHg 94%
    09:00 +10°C° 0.1 mm 1 m/s 746 mmHg 92%
    10:00 +10°C° 0.1 mm 2 m/s 746 mmHg 90%
    11:00 +12°C° 0.2 mm 2 m/s 746 mmHg 87%
    12:00 +12°C° 0.2 mm 2 m/s 746 mmHg 84%
    13:00 +13°C° 0.2 mm 2 m/s 746 mmHg 81%
    14:00 +13°C° 0.4 mm 1 m/s 745 mmHg 81%
    15:00 +13°C° 0.4 mm 1 m/s 745 mmHg 82%
    16:00 +13°C° 0.4 mm 1 m/s 745 mmHg 82%
    17:00 +12°C° 0.1 mm 1 m/s 745 mmHg 86%
    18:00 +11°C° 0.1 mm 1 m/s 745 mmHg 89%
    19:00 +8°C° 0.1 mm 0 m/s 745 mmHg 93%
    20:00 +8°C° 0 mm 0 m/s 745 mmHg 93%
    21:00 +8°C° 0 mm 0 m/s 745 mmHg 93%
    22:00 +8°C° 0 mm 0 m/s 745 mmHg 94%
    23:00 +8°C° 0 mm 0 m/s 745 mmHg 94%

    26 Ianuarie, Duminică

    Timp Temperatura Precipitaţii Vânt Presiune Umiditate
    00:00 +9°C° 0 mm 1 m/s 745 mmHg 94%
    01:00 +9°C° 0 mm 1 m/s 745 mmHg 95%
    02:00 +8°C° 0 mm 1 m/s 745 mmHg 95%
    03:00 +8°C° 0 mm 1 m/s 745 mmHg 95%
    04:00 +8°C° 0 mm 1 m/s 745 mmHg 95%
    05:00 +8°C° 0 mm 1 m/s 744 mmHg 95%
    06:00 +8°C° 0 mm 1 m/s 744 mmHg 95%
    07:00 +7°C° 0 mm 1 m/s 744 mmHg 95%
    08:00 +8°C° 0 mm 1 m/s 745 mmHg 93%
    09:00 +9°C° 0 mm 1 m/s 745 mmHg 91%
    10:00 +10°C° 0 mm 1 m/s 745 mmHg 89%
    11:00 +11°C° 0 mm 1 m/s 745 mmHg 85%
    12:00 +11°C° 0 mm 1 m/s 745 mmHg 81%
    13:00 +12°C° 0 mm 1 m/s 744 mmHg 77%
    14:00 +12°C° 0 mm 1 m/s 744 mmHg 78%
    15:00 +12°C° 0 mm 1 m/s 744 mmHg 79%
    16:00 +12°C° 0 mm 1 m/s 744 mmHg 80%
    17:00 +11°C° 0 mm 1 m/s 744 mmHg 83%
    18:00 +10°C° 0 mm 1 m/s 744 mmHg 86%
    19:00 +9°C° 0 mm 1 m/s 744 mmHg 89%
    20:00 +9°C° 0 mm 1 m/s 744 mmHg 90%
    21:00 +8°C° 0 mm 1 m/s 744 mmHg 91%
    22:00 +8°C° 0 mm 1 m/s 744 mmHg 92%
    23:00 +7°C° 0 mm 1 m/s 744 mmHg 92%

    27 Ianuarie, Luni

    Timp Temperatura Precipitaţii Vânt Presiune Umiditate
    00:00 +7°C° 0 mm 1 m/s 744 mmHg 92%
    01:00 +6°C° 0 mm 1 m/s 744 mmHg 93%
    02:00 +6°C° 0 mm 1 m/s 744 mmHg 93%
    03:00 +6°C° 0 mm 1 m/s 744 mmHg 93%
    04:00 +5°C° 0 mm 1 m/s 744 mmHg 93%
    05:00 +5°C° 0 mm 1 m/s 744 mmHg 93%
    06:00 +5°C° 0 mm 1 m/s 744 mmHg 93%
    07:00 +5°C° 0 mm 1 m/s 744 mmHg 93%
    08:00 +6°C° 0 mm 1 m/s 745 mmHg 89%
    09:00 +7°C° 0 mm 1 m/s 745 mmHg 85%
    10:00 +8°C° 0 mm 1 m/s 746 mmHg 81%
    11:00 +10°C° 0 mm 1 m/s 746 mmHg 75%
    12:00 +11°C° 0 mm 1 m/s 746 mmHg 70%
    13:00 +13°C° 0 mm 2 m/s 746 mmHg 65%
    14:00 +13°C° 0 mm 1 m/s 746 mmHg 66%
    15:00 +13°C° 0 mm 1 m/s 746 mmHg 68%
    16:00 +13°C° 0 mm 1 m/s 745 mmHg 69%
    17:00 +11°C° 0 mm 1 m/s 745 mmHg 74%
    18:00 +9°C° 0 mm 1 m/s 745 mmHg 79%
    19:00 +8°C° 0 mm 1 m/s 746 mmHg 84%
    20:00 +7°C° 0 mm 1 m/s 746 mmHg 85%
    21:00 +7°C° 0 mm 1 m/s 746 mmHg 86%
    22:00 +6°C° 0 mm 1 m/s 746 mmHg 87%
    23:00 +6°C° 0 mm 1 m/s 746 mmHg 86%

    28 Ianuarie, Marţi

    Timp Temperatura Precipitaţii Vânt Presiune Umiditate
    00:00 +6°C° 0 mm 1 m/s 746 mmHg 86%
    01:00 +6°C° 0 mm 1 m/s 746 mmHg 86%
    02:00 +5°C° 0 mm 1 m/s 746 mmHg 85%
    03:00 +5°C° 0 mm 1 m/s 746 mmHg 84%
    04:00 +4°C° 0 mm 0 m/s 745 mmHg 84%
    05:00 +4°C° 0 mm 0 m/s 745 mmHg 83%
    06:00 +3°C° 0 mm 0 m/s 745 mmHg 83%
    07:00 +3°C° 0 mm 0 m/s 745 mmHg 83%
    08:00 +5°C° 0 mm 0 m/s 745 mmHg 78%
    09:00 +6°C° 0 mm 0 m/s 746 mmHg 73%
    10:00 +8°C° 0 mm 0 m/s 746 mmHg 67%
    11:00 +10°C° 0 mm 1 m/s 746 mmHg 65%
    12:00 +12°C° 0 mm 1 m/s 746 mmHg 62%
    13:00 +13°C° 0 mm 1 m/s 745 mmHg 59%
    14:00 +13°C° 0 mm 2 m/s 745 mmHg 63%
    15:00 +12°C° 0 mm 2 m/s 745 mmHg 68%
    16:00 +12°C° 0 mm 2 m/s 745 mmHg 73%
    17:00 +11°C° 0 mm 1 m/s 745 mmHg 78%
    18:00 +9°C° 0 mm 1 m/s 745 mmHg 84%
    19:00 +8°C° 0 mm 1 m/s 745 mmHg 90%
    20:00 +8°C° 0 mm 1 m/s 745 mmHg 90%
    21:00 +8°C° 0 mm 1 m/s 745 mmHg 90%
    22:00 +7°C° 0 mm 0 m/s 745 mmHg 90%
    23:00 +7°C° 0 mm 0 m/s 745 mmHg 90%
    Arată mai mult